Location: �terpigny
(49.8910°N, 2.9249°E)
Time: 15:23:40
(UTC+00:00)

Cosmos 614 Rocket - Pass Details

Date: 24 October 2021
Orbit: 733 x 763 km, 74.1° (Epoch: 27 November)

Event Time Altitude Azimuth Distance (km) Brightness Sun altitude
Rises 18:38:04 0° 333° (NNW) 3,175 7.6 -19.7°
Reaches altitude 10° 18:40:26 10° 330° (NNW) 2,250 6.9 -20.1°
Maximum altitude 18:45:26 60° 252° (WSW) 843 4.4 -20.9°
Drops below altitude 10° 18:50:26 10° 173° (S) 2,247 6.3 -21.7°
Enters shadow 18:51:35 - 171° (S) 2,690 6.7 -21.9°
